Jackson, TN

7:03 PM CST on November 15, 2019 (GMT -0600)
McKellar-Sipes Regional

Weather History for KMKL - September, 2019

Change the Weather History Date:

Saturday, September 28, 2019

  Actual Average Record
Temperature  
Mean Temperature 79 °F 67 °F  
Max Temperature 91 °F 79 °F 97 °F (1953)
Min Temperature 66 °F 54 °F 40 °F (1967)
Degree Days  
Heating Degree Days 0 2  
Month to date heating degree days 0 19  
Since 1 July heating degree days 0 19  
Cooling Degree Days 14 4  
Month to date cooling degree days 373 213  
Year to date cooling degree days 1834 1636  
Growing Degree Days 29 (Base 50)    
Moisture  
Dew Point 67 °F    
Average Humidity 72    
Maximum Humidity 93    
Minimum Humidity 45    
Precipitation  
Precipitation 0.00 in 0.13 in 2.53 in (1964)
Month to date precipitation 1.07 3.11  
Year to date precipitation 47.78 38.98  
Sea Level Pressure  
Sea Level Pressure 30.03 in    
Wind  
Wind Speed 5 mph ()    
Max Wind Speed 14 mph    
Max Gust Speed 18 mph    
Visibility 10.0 miles    
Events      
T = Trace of Precipitation, MM = Missing Value Source: Averaged Metar Reports

Daily Weather History Graph

Daily Weather History Graph

Search for Another Location

Airport or City:

Astronomy

Sep. 28, 2019 Rise Set
Actual Time 6:48 AM CDT 6:44 PM CDT
Civil Twilight 6:22 AM CDT 7:09 PM CDT
Nautical Twilight 5:53 AM CDT 7:39 PM CDT
Astronomical Twilight 5:23 AM CDT 8:08 PM CDT
Moon 6:27 AM CDT (9/28) 7:08 PM CDT (9/28)
Length of Visible Light 12h 46m
Length of Day
11h 55m
Waning Crescent, 0% of the Moon is Illuminated
Sep 28
Waning Crescent
Sep 28
New
Oct 5
First Quarter
Oct 13
Full
Oct 21
Last Quarter

Hourly Weather History & Observations

Time (CDT) Temp. Heat Index Dew Point Humidity Pressure Visibility Wind Dir Wind Speed Gust Speed Precip Events Conditions
12:53 AM 73.9 °F - 66.0 °F 76% 29.90 in 10.0 mi South 4.6 mph - N/A   Clear
1:53 AM 72.0 °F - 66.9 °F 84% 29.93 in 10.0 mi SSW 4.6 mph - N/A   Clear
2:53 AM 68.0 °F - 66.0 °F 93% 29.94 in 10.0 mi South 3.5 mph - N/A   Clear
3:53 AM 68.0 °F - 64.9 °F 90% 29.95 in 10.0 mi SSW 5.8 mph - N/A   Clear
4:53 AM 69.1 °F - 64.9 °F 87% 29.97 in 10.0 mi SSW 5.8 mph - N/A   Clear
5:53 AM 68.0 °F - 64.9 °F 90% 29.99 in 10.0 mi South 5.8 mph - N/A   Clear
6:53 AM 69.1 °F - 64.9 °F 87% 30.03 in 10.0 mi SSW 5.8 mph - N/A   Clear
7:53 AM 73.0 °F - 66.9 °F 81% 30.05 in 10.0 mi SSW 6.9 mph - N/A   Clear
8:53 AM 78.1 °F - 69.1 °F 74% 30.07 in 10.0 mi SW 9.2 mph - N/A   Clear
9:53 AM 82.9 °F 87.5 °F 71.1 °F 67% 30.09 in 10.0 mi West 11.5 mph - N/A   Clear
10:53 AM 86.0 °F 90.7 °F 70.0 °F 59% 30.09 in 10.0 mi West 11.5 mph - N/A   Clear
11:53 AM 87.1 °F 92.0 °F 70.0 °F 57% 30.09 in 10.0 mi WSW 8.1 mph - N/A   Scattered Clouds
12:53 PM 90.0 °F 92.8 °F 66.9 °F 46% 30.08 in 10.0 mi SSW 12.7 mph - N/A   Clear
1:53 PM 89.1 °F 92.9 °F 68.0 °F 50% 30.07 in 10.0 mi Calm Calm - N/A   Overcast
2:53 PM 89.1 °F 91.3 °F 66.0 °F 46% 30.05 in 10.0 mi South 6.9 mph - N/A   Partly Cloudy
3:53 PM 89.1 °F 91.3 °F 66.0 °F 46% 30.04 in 10.0 mi South 5.8 mph - N/A   Partly Cloudy
4:53 PM 90.0 °F 92.4 °F 66.0 °F 45% 30.03 in 10.0 mi SSE 5.8 mph - N/A   Clear
5:53 PM 87.1 °F 89.9 °F 66.9 °F 51% 30.03 in 10.0 mi SSE 4.6 mph - N/A   Clear
6:53 PM 81.0 °F 83.8 °F 68.0 °F 65% 30.03 in 10.0 mi SSE 3.5 mph - N/A   Clear
7:53 PM 73.9 °F - 69.1 °F 85% 30.04 in 10.0 mi SSE 3.5 mph - N/A   Clear
8:53 PM 73.0 °F - 69.1 °F 87% 30.05 in 10.0 mi South 4.6 mph - N/A   Clear
9:53 PM 72.0 °F - 69.1 °F 91% 30.06 in 10.0 mi Calm Calm - N/A   Clear
10:53 PM 71.1 °F - 68.0 °F 90% 30.08 in 10.0 mi SSE 3.5 mph - N/A   Clear
11:53 PM 72.0 °F - 66.9 °F 84% 30.08 in 10.0 mi South 4.6 mph - N/A   Clear